When you browse on this site, cookies collect data to enhance your experience and personalize the content and advertising you see.
Visit our Privacy Policy to learn more. By continuing to use the site, you agree to this use of cookies and data.
  • In Czech Republic
  • List of Countries
  • For 7 days
  • Water Temperature
  • Weather Map
  • Weather Widgets
  • user-avatar
    Login

    Hourly Weather Cauquenes

    Today, 28 March, Saturday

    Time Temperature Precipitation Wind Pressure Humidity
    00:00 +13°C° 0 mm 1 mps 746 mmHg 84%
    01:00 +13°C° 0 mm 1 mps 746 mmHg 90%
    02:00 +13°C° 0 mm 1 mps 746 mmHg 90%
    03:00 +11°C° 0 mm 0 mps 745 mmHg 90%
    04:00 +11°C° 0 mm 0 mps 745 mmHg 91%
    05:00 +12°C° 0 mm 0 mps 746 mmHg 88%
    06:00 +13°C° 0 mm 0 mps 746 mmHg 85%
    07:00 +13°C° 0 mm 0 mps 747 mmHg 82%
    08:00 +18°C° 0 mm 1 mps 747 mmHg 70%
    09:00 +21°C° 0 mm 1 mps 747 mmHg 58%
    10:00 +24°C° 0 mm 2 mps 747 mmHg 45%
    11:00 +25°C° 0 mm 2 mps 747 mmHg 41%
    12:00 +26°C° 0 mm 2 mps 747 mmHg 36%
    13:00 +27°C° 0 mm 2 mps 747 mmHg 32%
    14:00 +26°C° 0 mm 3 mps 747 mmHg 34%
    15:00 +26°C° 0 mm 3 mps 747 mmHg 37%
    16:00 +25°C° 0 mm 4 mps 747 mmHg 40%
    17:00 +21°C° 0 mm 3 mps 748 mmHg 51%
    18:00 +19°C° 0 mm 3 mps 748 mmHg 62%
    19:00 +16°C° 0 mm 2 mps 748 mmHg 73%
    20:00 +16°C° 0 mm 2 mps 748 mmHg 73%
    21:00 +15°C° 0 mm 2 mps 748 mmHg 72%
    22:00 +15°C° 0 mm 2 mps 748 mmHg 72%
    23:00 +14°C° 0 mm 2 mps 748 mmHg 75%

    Tomorrow, 29 March, Sunday

    Time Temperature Precipitation Wind Pressure Humidity
    00:00 +14°C° 0 mm 2 mps 748 mmHg 78%
    01:00 +13°C° 0 mm 2 mps 748 mmHg 81%
    02:00 +13°C° 0 mm 2 mps 748 mmHg 82%
    03:00 +12°C° 0 mm 1 mps 748 mmHg 84%
    04:00 +12°C° 0 mm 1 mps 747 mmHg 85%
    05:00 +12°C° 0 mm 1 mps 748 mmHg 81%
    06:00 +13°C° 0 mm 1 mps 748 mmHg 76%
    07:00 +13°C° 0 mm 1 mps 749 mmHg 72%
    08:00 +16°C° 0 mm 2 mps 749 mmHg 61%
    09:00 +19°C° 0 mm 2 mps 749 mmHg 50%
    10:00 +22°C° 0 mm 3 mps 749 mmHg 39%
    11:00 +25°C° 0 mm 3 mps 749 mmHg 34%
    12:00 +26°C° 0 mm 3 mps 749 mmHg 30%
    13:00 +28°C° 0 mm 4 mps 748 mmHg 25%
    14:00 +27°C° 0 mm 4 mps 748 mmHg 26%
    15:00 +27°C° 0 mm 4 mps 748 mmHg 26%
    16:00 +26°C° 0 mm 4 mps 748 mmHg 27%
    17:00 +22°C° 0 mm 3 mps 748 mmHg 36%
    18:00 +19°C° 0 mm 3 mps 748 mmHg 44%
    19:00 +16°C° 0 mm 2 mps 748 mmHg 52%
    20:00 +16°C° 0 mm 3 mps 748 mmHg 53%
    21:00 +14°C° 0 mm 3 mps 748 mmHg 53%
    22:00 +13°C° 0 mm 4 mps 748 mmHg 54%
    23:00 +12°C° 0 mm 3 mps 748 mmHg 58%

    Day after tomorrow, 30 March, Monday

    Time Temperature Precipitation Wind Pressure Humidity
    00:00 +11°C° 0 mm 3 mps 748 mmHg 62%
    01:00 +10°C° 0 mm 2 mps 748 mmHg 66%
    02:00 +10°C° 0 mm 2 mps 748 mmHg 68%
    03:00 +9°C° 0 mm 2 mps 747 mmHg 69%
    04:00 +8°C° 0 mm 2 mps 747 mmHg 70%
    05:00 +9°C° 0 mm 2 mps 748 mmHg 68%
    06:00 +9°C° 0 mm 2 mps 748 mmHg 65%
    07:00 +11°C° 0 mm 1 mps 748 mmHg 62%
    08:00 +14°C° 0 mm 2 mps 748 mmHg 52%
    09:00 +18°C° 0 mm 3 mps 748 mmHg 41%
    10:00 +21°C° 0 mm 3 mps 748 mmHg 31%
    11:00 +24°C° 0 mm 3 mps 747 mmHg 26%
    12:00 +26°C° 0 mm 3 mps 747 mmHg 21%
    13:00 +28°C° 0 mm 4 mps 747 mmHg 17%
    14:00 +28°C° 0 mm 3 mps 747 mmHg 17%
    15:00 +28°C° 0 mm 3 mps 746 mmHg 17%
    16:00 +27°C° 0 mm 3 mps 746 mmHg 17%
    17:00 +24°C° 0 mm 3 mps 746 mmHg 26%
    18:00 +19°C° 0 mm 2 mps 746 mmHg 34%
    19:00 +16°C° 0 mm 2 mps 747 mmHg 43%
    20:00 +15°C° 0 mm 2 mps 747 mmHg 45%
    21:00 +15°C° 0 mm 2 mps 747 mmHg 46%
    22:00 +14°C° 0 mm 2 mps 746 mmHg 48%
    23:00 +13°C° 0 mm 2 mps 746 mmHg 53%

    31 March, Tuesday

    Time Temperature Precipitation Wind Pressure Humidity
    00:00 +12°C° 0 mm 2 mps 746 mmHg 59%
    01:00 +10°C° 0 mm 2 mps 746 mmHg 64%
    02:00 +10°C° 0 mm 2 mps 746 mmHg 67%
    03:00 +10°C° 0 mm 1 mps 746 mmHg 70%
    04:00 +10°C° 0 mm 1 mps 746 mmHg 74%
    05:00 +10°C° 0 mm 1 mps 746 mmHg 69%
    06:00 +11°C° 0 mm 1 mps 747 mmHg 65%
    07:00 +12°C° 0 mm 1 mps 747 mmHg 61%
    08:00 +15°C° 0 mm 2 mps 747 mmHg 53%
    09:00 +18°C° 0 mm 3 mps 747 mmHg 45%
    10:00 +21°C° 0 mm 3 mps 747 mmHg 37%
    11:00 +24°C° 0 mm 3 mps 747 mmHg 32%
    12:00 +26°C° 0 mm 3 mps 747 mmHg 28%
    13:00 +28°C° 0 mm 4 mps 747 mmHg 23%
    14:00 +27°C° 0 mm 4 mps 747 mmHg 24%
    15:00 +27°C° 0 mm 4 mps 747 mmHg 25%
    16:00 +26°C° 0 mm 4 mps 747 mmHg 26%
    17:00 +22°C° 0 mm 3 mps 747 mmHg 39%
    18:00 +18°C° 0 mm 3 mps 747 mmHg 51%
    19:00 +15°C° 0 mm 2 mps 748 mmHg 63%
    20:00 +13°C° 0 mm 3 mps 748 mmHg 63%
    21:00 +13°C° 0 mm 3 mps 748 mmHg 62%
    22:00 +13°C° 0 mm 3 mps 748 mmHg 62%
    23:00 +12°C° 0 mm 3 mps 748 mmHg 66%

    1 April, Wednesday

    Time Temperature Precipitation Wind Pressure Humidity
    00:00 +11°C° 0 mm 3 mps 748 mmHg 70%
    01:00 +10°C° 0 mm 3 mps 748 mmHg 74%
    02:00 +10°C° 0 mm 3 mps 748 mmHg 73%
    03:00 +9°C° 0 mm 3 mps 748 mmHg 71%
    04:00 +9°C° 0 mm 3 mps 748 mmHg 70%
    05:00 +9°C° 0 mm 3 mps 749 mmHg 67%
    06:00 +10°C° 0 mm 3 mps 749 mmHg 64%
    07:00 +10°C° 0 mm 3 mps 750 mmHg 61%
    08:00 +14°C° 0 mm 4 mps 750 mmHg 49%
    09:00 +17°C° 0 mm 5 mps 750 mmHg 38%
    10:00 +21°C° 0 mm 7 mps 750 mmHg 26%
    11:00 +23°C° 0 mm 7 mps 750 mmHg 24%
    12:00 +26°C° 0 mm 7 mps 750 mmHg 21%
    13:00 +28°C° 0 mm 8 mps 750 mmHg 18%
    14:00 +27°C° 0 mm 7 mps 749 mmHg 18%
    15:00 +27°C° 0 mm 7 mps 749 mmHg 19%
    16:00 +27°C° 0 mm 7 mps 749 mmHg 19%
    17:00 +24°C° 0 mm 6 mps 749 mmHg 25%
    18:00 +21°C° 0 mm 6 mps 749 mmHg 31%
    19:00 +19°C° 0 mm 5 mps 750 mmHg 36%
    20:00 +16°C° 0 mm 5 mps 750 mmHg 43%
    21:00 +15°C° 0 mm 5 mps 750 mmHg 50%
    22:00 +14°C° 0 mm 4 mps 750 mmHg 56%
    23:00 +13°C° 0 mm 4 mps 750 mmHg 61%

    2 April, Thursday

    Time Temperature Precipitation Wind Pressure Humidity
    00:00 +12°C° 0 mm 3 mps 750 mmHg 66%
    01:00 +11°C° 0 mm 3 mps 749 mmHg 71%
    02:00 +11°C° 0 mm 3 mps 749 mmHg 73%
    03:00 +10°C° 0 mm 3 mps 749 mmHg 76%
    04:00 +10°C° 0 mm 3 mps 749 mmHg 78%
    05:00 +10°C° 0 mm 2 mps 748 mmHg 76%
    06:00 +10°C° 0 mm 2 mps 748 mmHg 73%
    07:00 +12°C° 0 mm 2 mps 748 mmHg 71%
    08:00 +16°C° 0 mm 3 mps 748 mmHg 55%
    09:00 +20°C° 0 mm 3 mps 748 mmHg 40%
    10:00 +25°C° 0 mm 4 mps 747 mmHg 25%
    11:00 +27°C° 0 mm 5 mps 747 mmHg 20%
    12:00 +30°C° 0 mm 5 mps 747 mmHg 16%
    13:00 +33°C° 0 mm 6 mps 746 mmHg 11%
    14:00 +33°C° 0 mm 6 mps 746 mmHg 12%
    15:00 +33°C° 0 mm 6 mps 746 mmHg 13%
    16:00 +32°C° 0 mm 6 mps 746 mmHg 13%
    17:00 +28°C° 0 mm 5 mps 746 mmHg 19%
    18:00 +25°C° 0 mm 4 mps 746 mmHg 24%
    19:00 +21°C° 0 mm 3 mps 746 mmHg 29%
    20:00 +20°C° 0 mm 3 mps 747 mmHg 34%
    21:00 +19°C° 0 mm 3 mps 747 mmHg 38%
    22:00 +17°C° 0 mm 3 mps 747 mmHg 43%
    23:00 +17°C° 0 mm 2 mps 747 mmHg 48%
    Show more